CBERS 1 DEB, 30789

Orbit data source: Space-Track

CBERS 1 DEB, 30789 is space debris in SSO originally from a launch on Thu, 14 Oct 1999 UTC launched from the Taiyaun Space Center, China (TSC). Debris objects in space refer to the collection of defunct objects orbiting the Earth. Examples of debris include non-operational satellites, rocket bodies, and fragments generated from explosions, collisions, or faulty payload assembly.

Loading next visibility...
Identifier
30789, 1999-057NY
Orbit
SSO
Country
Flag of CNCN / CHBZ
Flag of BRBR / CHBZ
Related business
Manufacturer
Unknown
Mission
Spacecraft
Bus & Motor
Unknown
Mass
Unknown
Launch date (UTC)
1999-10-14 (26 years ago)
Launch vehicle
Unknown
Launch site
Taiyaun Space Center, China (TSC)
Object type
Payload
Rocket body
Debris
Shape & HBR
Unknown shape, 0.1 m
Radar Cross Section
Small (<0.1 m²)

Expand to show TLE details & history
Last TLE update: 13 hours ago

TLE from 13 hours ago
0 CBERS 1 DEB
1 30789U 99057NY  26093.62810482  .00006139  00000-0  13231-2 0  9999
2 30789  98.6348 138.4722 0004073 304.6899 222.0600 14.58795882  5360
Epoch: 2026-04-03T15:04Z
TLE epoch observation values (Epoch: 2026-04-03T15:04:28.256Z)
Latitude
13.09168°
Longitude
-97.5921°
Altitude
701.422 km
Speed
7.505 km/s
True Right ascension
21h 21m 56s
True Declination
13° 00' 56"
Sunlit
Object was in daylight at epoch
Visualization orbit readout
Latitude
Unknown
Longitude
Unknown
Altitude
Unknown
Speed
Unknown
Apparent Right ascension
Unknown
Apparent Declination
Unknown
Sunlit
N/A
Visualization observer readout
Local Sidereal Time
09:53:04
Azimuth
Unknown
Elevation
Unknown
Doppler factor
Unknown
Orbital elements
Apogee altitude
697.049 km
Perigee altitude
691.287 km
Semi-major axis
7,072.305 km
Eccentricity
0.00041
Inclination
98.6348°
RAAN
138.4722°
Arg. of periapsis
304.6899°
True anomaly
222.02875°
Mean anomaly
222.06°
Eccentric anomaly
222.04437°
Mean motion
3.64923 °/min
Orbital period
98.65 mins
BSTAR
0.0013231
Loading maneuver chart data...
Computing Atmospheric mass density...
Loading historical data...
Loading historical data...
Loading historical data...
Loading historical data...
Loading historical data...
Loading historical data...
Loading historical data...

Documentation

Showing up to 5 results
|